Voltar ao catálogo

JASON 2

AtivoCiênciaLEO
NORAD 33105·PAYLOAD·🇫🇷 France

Lançado Jun 20, 2008 de Vandenberg Space Force Base

Loading…

Próximas Passagens (próximas 24 horas)

TLE

AtualizadoSource: Space-Track

Época: Sep 14, 2026, 12:18 UTC

1 33105U 08032A   26257.51311274 -.00000074  00000-0 -47778-4 0  9991
2 33105  66.0380 223.0051 0008036 269.3703 245.8460 12.87697700855203

Acompanhe JASON 2 em tempo real com AllMySat

Download on the App Store